TimeEST,TemperatureF,Dew PointF,Humidity,Sea Level PressureIn,VisibilityMPH,Wind Direction,Wind SpeedMPH,Gust SpeedMPH,PrecipitationIn,Events,Conditions,WindDirDegrees,DateUTC
12:53 AM,18.0,12.9,81,30.35,10.0,Calm,Calm,-,N/A,,Clear,0,2013-02-02 05:53:00
1:53 AM,17.1,12.0,81,30.33,10.0,Calm,Calm,-,N/A,,Partly Cloudy,0,2013-02-02 06:53:00
2:53 AM,17.1,12.9,84,30.32,10.0,Calm,Calm,-,N/A,,Clear,0,2013-02-02 07:53:00
3:53 AM,16.0,12.9,88,30.32,10.0,Calm,Calm,-,N/A,,Clear,0,2013-02-02 08:53:00
4:55 AM,17.1,12.0,81,30.28,10.0,NNW,3.5,-,N/A,,Clear,340,2013-02-02 09:55:00
5:53 AM,17.1,10.9,77,30.28,10.0,Calm,Calm,-,N/A,,Clear,0,2013-02-02 10:53:00
6:53 AM,18.0,14.0,84,-9999,10.0,Calm,Calm,-,N/A,,Overcast,0,2013-02-02 11:53:00
6:57 AM,18.0,14.0,84,30.27,10.0,Calm,Calm,-,N/A,,Overcast,0,2013-02-02 11:57:00
7:53 AM,19.9,15.1,81,30.27,10.0,Calm,Calm,-,N/A,,Overcast,0,2013-02-02 12:53:00
8:53 AM,21.0,15.1,78,30.27,10.0,Calm,Calm,-,N/A,,Overcast,0,2013-02-02 13:53:00
9:53 AM,25.0,17.1,72,30.22,10.0,Calm,Calm,-,N/A,,Mostly Cloudy,0,2013-02-02 14:53:00
10:53 AM,27.0,16.0,63,30.22,10.0,West,4.6,-,N/A,,Overcast,260,2013-02-02 15:53:00
11:53 AM,28.9,12.0,49,30.22,2.5,SSW,5.8,-,N/A,,Overcast,210,2013-02-02 16:53:00
12:01 PM,28.0,17.1,63,30.23,2.0,SW,12.7,20.7,0.00,Snow,Light Snow,220,2013-02-02 17:01:00
12:07 PM,28.0,18.0,66,30.23,0.8,SW,15.0,23.0,0.00,Snow,Light Snow,220,2013-02-02 17:07:00
12:53 PM,27.0,23.0,85,30.18,0.8,South,8.1,-,0.00,Snow,Light Snow,170,2013-02-02 17:53:00
1:03 PM,27.0,24.1,89,30.16,0.8,SSW,6.9,-,0.01,Snow,Light Snow,200,2013-02-02 18:03:00
1:14 PM,27.0,23.0,85,30.16,0.8,SSW,5.8,-,0.01,Snow,Light Snow,210,2013-02-02 18:14:00
1:30 PM,27.0,23.0,85,30.16,0.8,SSW,5.8,-,0.01,Snow,Light Snow,210,2013-02-02 18:30:00
1:34 PM,27.0,24.1,89,30.14,1.5,SW,6.9,-,0.01,Snow,Light Snow,230,2013-02-02 18:34:00
1:53 PM,28.0,24.1,85,30.12,1.0,SW,6.9,-,0.01,Snow,Light Snow,220,2013-02-02 18:53:00
2:09 PM,27.0,24.1,89,-9999,1.0,SW,5.8,-,0.01,Snow,Light Snow,230,2013-02-02 19:09:00
2:35 PM,28.0,25.0,88,30.10,0.8,West,4.6,-,0.02,Snow,Light Snow,260,2013-02-02 19:35:00
2:46 PM,27.0,24.1,89,30.10,0.8,West,6.9,-,0.02,Snow,Light Snow,260,2013-02-02 19:46:00
2:53 PM,27.0,24.1,89,30.12,1.2,West,5.8,-,0.02,Snow,Light Snow,260,2013-02-02 19:53:00
3:03 PM,27.0,24.1,89,30.10,2.0,WSW,5.8,-,0.01,Snow,Light Snow,240,2013-02-02 20:03:00
3:09 PM,27.0,24.1,89,30.09,1.0,SW,4.6,-,0.01,Snow,Light Snow,220,2013-02-02 20:09:00
3:53 PM,27.0,25.0,92,30.11,1.0,West,3.5,-,0.03,Snow,Light Snow,280,2013-02-02 20:53:00
4:27 PM,27.0,24.1,89,30.07,1.0,West,3.5,-,0.01,Snow,Light Snow,280,2013-02-02 21:27:00
4:40 PM,27.0,25.0,92,30.07,1.0,WSW,3.5,-,0.01,Snow,Light Snow,240,2013-02-02 21:40:00
4:53 PM,28.0,25.0,88,30.09,0.8,Calm,Calm,-,0.02,Snow,Light Snow,0,2013-02-02 21:53:00
5:01 PM,28.0,25.0,88,30.07,1.0,Calm,Calm,-,0.00,Snow,Light Snow,0,2013-02-02 22:01:00
5:08 PM,27.0,25.0,92,30.07,1.0,Calm,Calm,-,0.01,Snow,Light Snow,0,2013-02-02 22:08:00
5:53 PM,27.0,25.0,92,30.07,1.0,Calm,Calm,-,0.02,Snow,Light Snow,0,2013-02-02 22:53:00
6:01 PM,27.0,25.0,92,30.05,1.0,Calm,Calm,-,0.00,Snow,Light Snow,0,2013-02-02 23:01:00
6:16 PM,27.0,26.1,96,30.05,0.8,Calm,Calm,-,0.02,Snow,Light Snow,0,2013-02-02 23:16:00
6:53 PM,27.0,25.0,92,30.07,1.0,Calm,Calm,-,0.06,Snow,Light Snow,0,2013-02-02 23:53:00
7:19 PM,27.0,25.0,92,30.05,1.0,Calm,Calm,-,0.01,Snow,Light Snow,0,2013-02-03 00:19:00
7:26 PM,27.0,26.1,96,30.05,1.0,Calm,Calm,-,0.02,Snow,Light Snow,0,2013-02-03 00:26:00
7:41 PM,28.0,26.1,92,30.06,1.0,Calm,Calm,-,0.03,Snow,Light Snow,0,2013-02-03 00:41:00
7:53 PM,27.0,25.0,92,30.08,1.0,Calm,Calm,-,0.03,Snow,Light Snow,0,2013-02-03 00:53:00
8:29 PM,28.0,26.1,92,30.06,1.0,Calm,Calm,-,0.01,Snow,Light Snow,0,2013-02-03 01:29:00
8:37 PM,28.4,26.6,93,30.42,1.0,Calm,Calm,-,N/A,,Overcast,0,2013-02-03 01:37:00
8:53 PM,28.0,26.1,92,30.09,1.0,Calm,Calm,-,0.03,Snow,Light Snow,0,2013-02-03 01:53:00
9:10 PM,28.0,26.1,92,30.06,1.0,Calm,Calm,-,0.01,Snow,Light Snow,0,2013-02-03 02:10:00
9:29 PM,28.0,26.1,92,30.06,2.0,Calm,Calm,-,0.01,,Overcast,0,2013-02-03 02:29:00
9:53 PM,28.9,27.0,92,30.07,2.0,Calm,Calm,-,0.01,Snow,Light Snow,0,2013-02-03 02:53:00
10:24 PM,28.9,27.0,92,30.05,2.0,Calm,Calm,-,0.00,Snow,Light Snow,0,2013-02-03 03:24:00
10:53 PM,28.9,27.0,92,30.07,2.0,Calm,Calm,-,0.00,Snow,Light Snow,0,2013-02-03 03:53:00
11:53 PM,30.0,28.9,96,30.04,2.0,Calm,Calm,-,0.01,,Overcast,0,2013-02-03 04:53:00